This demonstration page uses our WeatherBlox Daily Observations layout. Learn more.

Hourly Observations for January 26, 2019

Temp ( °F °C ) Dew Point ( °F °C ) Humidity (%) Winds ( mph kmh ) Pressure ( in mb ) Visibility ( mi km ) Precip ( " mm )
12:15 am 00:15 Cloudy 29 -1.7 25 -3.7 86 86 Calm 30.18 1022 10 16.0934 0 0
12:35 am 00:35 Cloudy 29 -1.6 25 -3.7 86 86 Calm 30.17 1022 10 16.0934 0 0
12:55 am 00:55 Cloudy 29 -1.8 25 -3.7 87 87 Calm 30.18 1022 10 16.0934 0 0
1:15 am 01:15 Cloudy 30 -1.2 26 -3.5 85 85 W 6 9 30.17 1022 10 16.0934 0 0
1:35 am 01:35 Mostly Cloudy 30 -1.2 26 -3.6 84 84 W 6 9 30.17 1022 10 16.0934 0 0
1:55 am 01:55 Partly Cloudy 29 -1.7 25 -4 85 85 W 7 11 30.17 1022 10 16.0934 0 0
2:15 am 02:15 Partly Cloudy 28 -2.5 24 -4.4 87 87 W 8 13 30.18 1022 10 16.0934 0 0
2:35 am 02:35 Clear 28 -2.4 24 -4.5 86 86 W 9 15 30.18 1022 10 16.0934 0 0
2:55 am 02:55 Partly Cloudy 28 -2.4 24 -4.7 84 84 W 10 17 30.17 1022 10 16.0934 0 0
3:15 am 03:15 Cloudy 28 -2.2 24 -4.7 83 83 W 10 17 30.16 1021 10 16.0934 0 0
3:35 am 03:35 Partly Cloudy 28 -2.1 23 -5 81 81 W 13 20 30.16 1021 10 16.0934 0 0
3:55 am 03:55 Clear 29 -1.7 23 -5 78 78 W 13 20 30.14 1021 10 16.0934 0 0
4:15 am 04:15 Clear 28 -2 23 -4.9 81 81 W 12 19 30.13 1020 10 16.0934 0 0
4:35 am 04:35 Clear 28 -2 23 -4.8 81 81 W 10 17 30.13 1020 10 16.0934 0 0
4:55 am 04:55 Clear 29 -1.5 24 -4.7 79 79 W 9 15 30.13 1020 10 16.0934 0 0
5:15 am 05:15 Clear 29 -1.6 24 -4.7 80 80 W 10 17 30.12 1020 10 16.0934 0 0
5:35 am 05:35 Clear 30 -1.2 24 -4.7 77 77 W 9 15 30.12 1020 10 16.0934 0 0
5:55 am 05:55 Partly Cloudy 29 -1.5 23 -4.8 78 78 W 10 17 30.11 1020 10 16.0934 0 0
6:15 am 06:15 Partly Cloudy 29 -1.5 24 -4.7 79 79 W 12 19 30.11 1020 10 16.0934 0 0
6:35 am 06:35 Clear 29 -1.8 23 -5 79 79 W 8 13 30.1 1019 10 16.0934 0 0
6:55 am 06:55 Clear 28 -2 23 -5 80 80 W 10 17 30.1 1019 10 16.0934 0 0
7:15 am 07:15 Partly Cloudy 28 -2.2 23 -5 81 81 W 9 15 30.11 1020 10 16.0934 0 0
7:35 am 07:35 Partly Cloudy 28 -2.1 23 -4.8 82 82 W 10 17 30.11 1019 10 16.0934 0 0
7:55 am 07:55 Sunny 28 -2 23 -4.8 81 81 W 13 20 30.1 1019 10 16.0934 0 0
8:15 am 08:15 Mostly Cloudy 28 -2 23 -5 80 80 W 10 17 30.1 1019 10 16.0934 0 0
8:35 am 08:35 Cloudy 28 -2 23 -4.9 81 81 W 12 19 30.11 1020 10 16.0934 0 0
8:55 am 08:55 Cloudy 29 -1.5 24 -4.6 80 80 W 13 20 30.12 1020 10 16.0934 0 0
9:15 am 09:15 Cloudy 30 -1.2 24 -4.3 80 80 W 8 13 30.12 1020 10 16.0934 0 0
9:35 am 09:35 Mostly Cloudy 31 -0.5 25 -3.9 78 78 W 10 17 30.12 1020 10 16.0934 0 0
9:55 am 09:55 Cloudy 32 0 26 -3.5 78 78 W 9 15 30.11 1020 10 16.0934 0 0
10:15 am 10:15 Cloudy 33 0.4 26 -3.2 77 77 W 10 17 30.12 1020 10 16.0934 0 0
10:35 am 10:35 Cloudy 34 1.1 27 -2.8 76 76 W 9 15 30.11 1020 10 16.0934 0 0
10:55 am 10:55 Mostly Cloudy 36 2.2 28 -2.4 72 72 WNW 8 13 30.11 1020 10 16.0934 0 0
11:15 am 11:15 Partly Cloudy 37 3 28 -2.1 69 69 WNW 9 15 30.11 1020 10 16.0934 0 0
11:35 am 11:35 Mostly Cloudy 38 3.6 29 -1.7 69 69 WNW 9 15 30.1 1019 10 16.0934 0 0
11:55 am 11:55 Mostly Cloudy 39 4.1 29 -1.4 68 68 WNW 9 15 30.1 1019 10 16.0934 0 0
12:15 pm 12:15 Partly Cloudy 41 4.9 29 -1.5 64 64 NW 10 17 30.08 1019 10 16.0934 0 0
12:35 pm 12:35 Sunny 41 5.1 29 -1.7 62 62 NW 10 17 30.07 1018 10 16.0934 0 0
12:55 pm 12:55 Mostly Cloudy 42 5.4 29 -1.5 61 61 NW 12 19 30.05 1018 10 16.0934 0 0
1:15 pm 13:15 Cloudy 42 5.7 30 -1.3 61 61 WNW 10 17 30.05 1018 10 16.0934 0 0
1:35 pm 13:35 Partly Cloudy 43 6.1 31 -0.8 62 62 WNW 10 17 30.04 1017 10 16.0934 0 0
1:55 pm 13:55 Partly Cloudy 44 6.5 31 -0.4 62 62 WNW 9 15 30.03 1017 10 16.0934 0 0
2:15 pm 14:15 Mostly Cloudy 44 6.8 32 -0.2 61 61 WNW 13 20 30.02 1017 10 16.0934 0 0
2:35 pm 14:35 Cloudy 44 6.5 32 -0.2 63 63 W 12 19 30.02 1017 10 16.0934 0 0
2:55 pm 14:55 Cloudy 44 6.6 31 -0.6 60 60 WNW 8 13 30.02 1017 10 16.0934 0 0
3:15 pm 15:15 Cloudy 43 6.2 31 -0.5 63 63 NW 8 13 30.03 1017 10 16.0934 0 0
3:35 pm 15:35 Cloudy 42 5.8 32 0 67 67 NNW 3 6 30.03 1017 10 16.0934 0 0
3:55 pm 15:55 Cloudy 42 5.8 32 0 67 67 NNW 3 6 30.03 1017 10 16.0934 0 0
4:15 pm 16:15 Cloudy 42 5.8 32 0.1 67 67 Calm 30.03 1017 10 16.0934 0 0
4:35 pm 16:35 Cloudy 42 5.5 32 0.1 69 69 Calm 30.03 1017 10 16.0934 0 0
4:55 pm 16:55 Cloudy 41 4.8 33 0.4 73 73 Calm 30.05 1018 10 16.0934 0 0
5:15 pm 17:15 Cloudy 41 4.9 32 0 71 71 NE 5 7 30.05 1018 10 16.0934 0 0
5:35 pm 17:35 Cloudy 39 3.8 32 0 77 77 NE 3 6 30.06 1018 10 16.0934 0 0
6:15 pm 18:15 Cloudy 38 3.1 31 -0.4 78 78 N 6 9 30.1 1019 10 16.0934 0 0
6:35 pm 18:35 Cloudy 36 2.2 31 -0.7 81 81 N 5 7 30.1 1019 10 16.0934 0 0
6:55 pm 18:55 Cloudy 37 2.5 31 -0.6 80 80 NNW 6 9 30.12 1020 10 16.0934 0 0
7:15 pm 19:15 Cloudy 36 2 31 -0.6 83 83 NW 5 7 30.13 1020 10 16.0934 0 0
7:35 pm 19:35 Cloudy 34 1.2 31 -0.6 88 88 NW 6 9 30.13 1020 10 16.0934 0 0
7:55 pm 19:55 Cloudy 34 1.1 31 -0.6 89 89 WNW 5 7 30.14 1021 10 16.0934 0 0
8:15 pm 20:15 Mostly Cloudy 34 0.9 31 -0.8 89 89 WNW 5 7 30.16 1021 10 16.0934 0 0
8:35 pm 20:35 Clear 34 0.9 31 -0.5 90 90 WNW 5 7 30.16 1021 10 16.0934 0 0
8:55 pm 20:55 Partly Cloudy 34 1 31 -0.6 89 89 WNW 6 9 30.17 1022 10 16.0934 0 0
9:15 pm 21:15 Partly Cloudy 33 0.8 31 -0.7 90 90 WNW 9 15 30.17 1022 10 16.0934 0 0
9:35 pm 21:35 Partly Cloudy 33 0.6 31 -0.5 92 92 NW 7 11 30.18 1022 10 16.0934 0 0
10:15 pm 22:15 Mostly Cloudy 32 -0.1 30 -1.2 92 92 NW 6 9 30.19 1022 10 16.0934 0 0
10:35 pm 22:35 Partly Cloudy 31 -0.7 29 -1.5 94 94 NW 5 7 30.19 1022 10 16.0934 0 0
10:55 pm 22:55 Clear 31 -0.8 29 -1.5 95 95 WNW 5 7 30.19 1022 10 16.0934 0 0
11:15 pm 23:15 Clear 30 -1 29 -1.6 96 96 WNW 5 7 30.19 1023 10 16.0934 0 0
11:35 pm 23:35 Partly Cloudy 30 -1.3 28 -2.1 94 94 WNW 6 9 30.2 1023 10 16.0934 0 0
11:55 pm 23:55 Partly Cloudy 31 -0.6 29 -1.8 92 92 W 8 13 30.19 1022 10 16.0934 0 0

Powered by AerisWeather